Inquirer Daily News

Weather

Get conditions and forecasts for any City, State, ZIP code or Country:  
Trenton, NJ
on Saturday, January 12, 2013

Saturday
Previous Day Next Day
Daily Summary
 ActualAverageRecord
Temperature
Mean Temperature °F 31°F  
Max Temperature 47°F 39°F 68°F (1890)
Min Temperature 43°F 23°F 0°F (1984)
Degree Days
Heating Degree Days 20 34  
Month to date heating degree days 340 407  
Since 1 July heating degree days 2098 2302  
Cooling Degree Days 0 0  
Month to date cooling degree days 0 0  
Year to date cooling degree days 0 0  
Moisture
Dew Point 43°F   
Average Humidity 93    
Maximum Humidity 100    
Minimum Humidity 86    
Precipitation
Precipitation 0.00 in 0.09 in 1.95 in (1900)
Month to date precipitation 0.62 1.33  
Year to date precipitation 0.62 1.33  
Wind
Wind Speed 3 mph   
Max Wind Speed 7 mph   
Max Gust Speed 9 mph   
Visibility 3 miles   
Events Fog   

Key: T is trace of precipitation, MM is missing value
Source: NWS Daily Summary
Time(EST)TemperatureDew PointHumidity Pressure Visibility Wind DirectionWind SpeedGust SpeedPrecipitationEvents Conditions
12:09 AM 44.6°F 42.8°F 93% 30.08 in 1.8 miles NE 4.6 mph - N/A   Overcast
12:33 AM 44.6°F 42.8°F 93% 30.08 in 0.8 miles NNE 4.6 mph - N/A   Mist
12:53 AM 44.1°F 43.0°F 96% 30.06 in 0.5 miles NNE 3.5 mph - N/A Fog Fog
1:53 AM 45.0°F 44.1°F 97% 30.07 in 0.5 miles North 4.6 mph - N/A Fog Fog
2:53 AM 44.1°F 43.0°F 96% 30.09 in 0.8 miles North 5.8 mph - N/A   Mist
3:00 AM 44.6°F 42.8°F 93% 30.09 in 1.0 miles North 6.9 mph - N/A   Mist
3:12 AM 44.6°F 42.8°F 93% 30.09 in 0.8 miles North 5.8 mph - N/A   Mist
3:53 AM 43.0°F 42.1°F 97% 30.07 in 0.5 miles North 5.8 mph - N/A Fog Fog
4:53 AM 43.0°F 43.0°F 100% 30.08 in 0.2 miles NNW 5.8 mph - N/A Fog Fog
5:49 AM 44.6°F 42.8°F 93% 30.09 in 1.0 miles Calm Calm - N/A   Mist
5:53 AM 44.1°F 43.0°F 96% 30.08 in 0.8 miles Calm Calm - N/A   Mist
6:29 AM 44.6°F 42.8°F 93% 30.11 in 1.5 miles Calm Calm - N/A   Overcast
6:53 AM 43.0°F 42.1°F 97% 30.10 in 1.8 miles Calm Calm - N/A   Overcast
7:18 AM 42.8°F 42.8°F 100% 30.13 in 2.5 miles West 3.5 mph - N/A   Overcast
7:25 AM 42.8°F 42.8°F 100% 30.14 in 3.0 miles West 3.5 mph - N/A   Overcast
7:32 AM 42.8°F 42.8°F 100% 30.14 in 2.5 miles WNW 3.5 mph - N/A   Overcast
7:53 AM 43.0°F 42.1°F 97% 30.14 in 1.8 miles NW 3.5 mph - N/A   Overcast
8:12 AM 42.8°F 42.8°F 100% 30.15 in 0.5 miles NNW 4.6 mph - N/A Fog Fog
8:28 AM 42.8°F 42.8°F 100% 30.15 in 1.5 miles NW 3.5 mph - N/A   Overcast
8:38 AM 42.8°F 42.8°F 100% 30.15 in 2.0 miles NNW 3.5 mph - N/A   Overcast
8:53 AM 43.0°F 42.1°F 97% 30.15 in 1.2 miles NNW 5.8 mph - N/A   Overcast
9:07 AM 42.8°F 42.8°F 100% 30.16 in 2.0 miles NNW 5.8 mph - N/A   Overcast
9:19 AM 42.8°F 42.8°F 100% 30.16 in 4.0 miles North 6.9 mph - N/A   Overcast
9:53 AM 45.0°F 43.0°F 93% 30.15 in 9.0 miles North 4.6 mph - N/A   Overcast
10:53 AM 45.0°F 43.0°F 93% 30.14 in 9.0 miles NNE 4.6 mph - N/A   Overcast
11:53 AM 46.0°F 43.0°F 89% 30.13 in 9.0 miles NNW 3.5 mph - N/A   Overcast
12:53 PM 46.0°F 43.0°F 89% 30.12 in 9.0 miles North 3.5 mph - N/A   Overcast
1:53 PM 46.0°F 44.1°F 93% 30.13 in 8.0 miles Calm Calm - N/A   Overcast
2:53 PM 46.0°F 44.1°F 93% 30.12 in 7.0 miles Calm Calm - N/A   Overcast
3:53 PM 46.9°F 44.1°F 90% 30.12 in 7.0 miles NNE 4.6 mph - N/A   Overcast
4:53 PM 46.0°F 44.1°F 93% 30.13 in 6.0 miles Calm Calm - N/A   Overcast
5:53 PM 46.0°F 44.1°F 93% 30.16 in 7.0 miles Calm Calm - N/A   Overcast
6:53 PM 46.0°F 44.1°F 93% 30.15 in 8.0 miles Calm Calm - N/A   Overcast
8:48 PM 44.6°F 44.6°F 100% 30.14 in 1.8 miles Calm Calm - N/A   Overcast
8:53 PM 45.0°F 44.1°F 97% 30.12 in 1.2 miles SSE 3.5 mph - N/A   Overcast
9:12 PM 44.6°F 44.6°F 100% 30.14 in 0.5 miles Calm Calm - N/A Fog Fog
9:53 PM 44.1°F 44.1°F 100% 30.12 in 0.2 miles SSW 4.6 mph - N/A Fog Fog
10:53 PM 45.0°F 44.1°F 97% 30.13 in 0.2 miles Calm Calm - N/A Fog Fog
11:53 PM 44.1°F 43.0°F 96% 30.13 in 0.2 miles NNW 3.5 mph - N/A Fog Fog
Astronomy
Sunrise:07:20 AM (EST) Moon Rise:07:37 AM (EST)1/12
Sunset:04:54 PM (EST) Moon Set:06:21 PM (EST)1/12
Moon Phase
Jan. 12 Jan. 18 Jan. 26 Feb. 03 Feb. 10

Copyright © 2014 The Weather Underground, Inc.